AAL3078 KRDU-KDCA

Flight info

Callsign AAL3078
Flight time 0h 40m
Altitude 27000
Route BEXGO5 BOUSY WAVES CAPSS4
Aircraft A319/M-SDE3FGHIRWY/LB1

Departure

Time 2026-05-08 02:16
Airport Raleigh-Durham International Airport (KRDU)

Arrival

Time 2026-05-08 02:56
Airport Ronald Reagan Washington National Airport (KDCA)
Time Latitude Longitude Altitude Speed Heading
2026-05-08 01:29 35.87841 -78.79302 392 ft 0 kts 138°
2026-05-08 02:06 35.87842 -78.79303 373 ft 2 kts 138°
2026-05-08 02:06 35.87861 -78.79325 392 ft 4 kts 143°
2026-05-08 02:06 35.87884 -78.79339 392 ft 4 kts 174°
2026-05-08 02:07 35.87907 -78.79334 392 ft 3 kts 223°
2026-05-08 02:07 35.87912 -78.79328 392 ft 0 kts 225°
2026-05-08 02:10 35.87910 -78.79330 392 ft 2 kts 225°
2026-05-08 02:10 35.87867 -78.79382 392 ft 13 kts 225°
2026-05-08 02:10 35.87798 -78.79468 392 ft 15 kts 225°
2026-05-08 02:11 35.87725 -78.79558 392 ft 15 kts 225°
2026-05-08 02:11 35.87642 -78.79662 391 ft 18 kts 225°
2026-05-08 02:11 35.87547 -78.79779 391 ft 20 kts 224°
2026-05-08 02:11 35.87448 -78.79897 391 ft 20 kts 224°
2026-05-08 02:12 35.87354 -78.80012 392 ft 17 kts 227°
2026-05-08 02:12 35.87355 -78.80068 392 ft 0 kts 308°
2026-05-08 02:12 35.87355 -78.80069 392 ft 0 kts 308°
2026-05-08 02:12 35.87356 -78.80069 392 ft 0 kts 308°
2026-05-08 02:13 35.87372 -78.80089 392 ft 7 kts 316°
2026-05-08 02:13 35.87420 -78.80145 392 ft 10 kts 316°
2026-05-08 02:13 35.87488 -78.80145 392 ft 12 kts 41°
2026-05-08 02:13 35.87495 -78.80136 391 ft 0 kts 45°
2026-05-08 02:15 35.87496 -78.80135 391 ft 1 kts 45°
2026-05-08 02:15 35.87566 -78.80047 391 ft 46 kts 45°
2026-05-08 02:15 35.87985 -78.79531 392 ft 118 kts 45°
2026-05-08 02:15 35.88700 -78.78650 481 ft 162 kts 45°
2026-05-08 02:16 35.89511 -78.77646 1087 ft 165 kts 44°
2026-05-08 02:16 35.90326 -78.76638 1847 ft 163 kts 43°
2026-05-08 02:16 35.91143 -78.75635 2406 ft 173 kts 38°
2026-05-08 02:16 35.92143 -78.74667 2706 ft 195 kts 28°
2026-05-08 02:17 35.93325 -78.73644 3136 ft 220 kts 32°
2026-05-08 02:17 35.94613 -78.72438 3641 ft 243 kts 33°
2026-05-08 02:17 35.95989 -78.71141 4389 ft 254 kts 32°
2026-05-08 02:17 35.97439 -78.69767 5263 ft 263 kts 32°
2026-05-08 02:18 35.98918 -78.68366 6047 ft 274 kts 33°
2026-05-08 02:18 36.00480 -78.66887 6804 ft 284 kts 33°
2026-05-08 02:18 36.02078 -78.65374 7612 ft 291 kts 33°
2026-05-08 02:18 36.03700 -78.63837 8397 ft 299 kts 32°
2026-05-08 02:19 36.05376 -78.62246 9175 ft 307 kts 32°
2026-05-08 02:19 36.07083 -78.60626 9951 ft 315 kts 32°
2026-05-08 02:19 36.08871 -78.58932 10422 ft 334 kts 32°
2026-05-08 02:19 36.10777 -78.57133 10714 ft 357 kts 32°
2026-05-08 02:20 36.12788 -78.55231 11259 ft 369 kts 33°
2026-05-08 02:20 36.14838 -78.53282 11970 ft 374 kts 33°
2026-05-08 02:20 36.16914 -78.51298 12708 ft 379 kts 33°
2026-05-08 02:20 36.19046 -78.49260 13431 ft 385 kts 32°
2026-05-08 02:21 36.21177 -78.47221 14150 ft 390 kts 32°
2026-05-08 02:21 36.23365 -78.45129 14800 ft 394 kts 32°
2026-05-08 02:21 36.25549 -78.43046 15437 ft 398 kts 31°
2026-05-08 02:21 36.27755 -78.40942 16080 ft 403 kts 31°
2026-05-08 02:22 36.30090 -78.38740 16720 ft 407 kts 30°
2026-05-08 02:22 36.32303 -78.36685 17324 ft 411 kts 29°
2026-05-08 02:22 36.34638 -78.34530 17945 ft 415 kts 29°
2026-05-08 02:22 36.36968 -78.32380 18519 ft 420 kts 29°
2026-05-08 02:23 36.39359 -78.30170 19043 ft 424 kts 28°
2026-05-08 02:23 36.41761 -78.27941 19597 ft 429 kts 28°
2026-05-08 02:23 36.43381 -78.26434 19937 ft 432 kts 28°
2026-05-08 02:23 36.45832 -78.24145 20469 ft 437 kts 28°
2026-05-08 02:24 36.48365 -78.21774 21021 ft 441 kts 28°
2026-05-08 02:24 36.50770 -78.19519 21545 ft 445 kts 28°
2026-05-08 02:24 36.53234 -78.17205 22056 ft 449 kts 28°
2026-05-08 02:24 36.55759 -78.14826 22573 ft 453 kts 28°
2026-05-08 02:25 36.58309 -78.12418 23131 ft 457 kts 28°
2026-05-08 02:25 36.60851 -78.10012 23609 ft 461 kts 28°
2026-05-08 02:25 36.63393 -78.07608 23996 ft 465 kts 28°
2026-05-08 02:25 36.66009 -78.05139 24421 ft 469 kts 27°
2026-05-08 02:26 36.68625 -78.02666 24790 ft 474 kts 27°
2026-05-08 02:26 36.71257 -78.00171 25153 ft 477 kts 27°
2026-05-08 02:26 36.73912 -77.97656 25522 ft 481 kts 26°
2026-05-08 02:26 36.76582 -77.95127 25842 ft 484 kts 26°
2026-05-08 02:27 36.79276 -77.92571 26172 ft 488 kts 26°
2026-05-08 02:27 36.82044 -77.90160 26504 ft 481 kts 19°
2026-05-08 02:27 36.84987 -77.88262 26843 ft 473 kts 12°
2026-05-08 02:27 36.87962 -77.86517 26955 ft 469 kts 12°
2026-05-08 02:28 36.90893 -77.84798 26964 ft 462 kts 11°
2026-05-08 02:28 36.93798 -77.83101 26963 ft 460 kts 11°
2026-05-08 02:28 36.96695 -77.81417 26963 ft 459 kts 11°
2026-05-08 02:28 36.99619 -77.79718 26979 ft 459 kts 11°
2026-05-08 02:29 37.02523 -77.78024 26979 ft 459 kts 11°
2026-05-08 02:29 37.05419 -77.76330 26978 ft 459 kts 11°
2026-05-08 02:29 37.08308 -77.74637 27048 ft 459 kts 12°
2026-05-08 02:29 37.11198 -77.72937 26972 ft 457 kts 12°
2026-05-08 02:30 37.14106 -77.71220 26968 ft 456 kts 12°
2026-05-08 02:30 37.16974 -77.69525 26969 ft 455 kts 12°
2026-05-08 02:30 37.19840 -77.67831 26967 ft 455 kts 12°
2026-05-08 02:30 37.22666 -77.66151 26988 ft 442 kts 12°
2026-05-08 02:31 37.25390 -77.64515 26989 ft 426 kts 11°
2026-05-08 02:31 37.28021 -77.62933 26900 ft 414 kts 11°
2026-05-08 02:31 37.30655 -77.61377 25982 ft 425 kts 12°
2026-05-08 02:31 37.33360 -77.59816 25156 ft 434 kts 12°
2026-05-08 02:32 37.36127 -77.58214 24580 ft 436 kts 13°
2026-05-08 02:32 37.38870 -77.56601 24109 ft 434 kts 14°
2026-05-08 02:32 37.41624 -77.54962 23764 ft 433 kts 14°
2026-05-08 02:32 37.44315 -77.53359 23537 ft 432 kts 14°
2026-05-08 02:33 37.47067 -77.51724 23265 ft 431 kts 14°
2026-05-08 02:33 37.49758 -77.50121 22995 ft 429 kts 14°
2026-05-08 02:33 37.52497 -77.48486 22784 ft 427 kts 14°
2026-05-08 02:33 37.55181 -77.46882 22509 ft 426 kts 14°
2026-05-08 02:34 37.57856 -77.45307 22153 ft 421 kts 12°
2026-05-08 02:34 37.60622 -77.44187 21676 ft 405 kts
2026-05-08 02:34 37.63350 -77.43368 21294 ft 401 kts
2026-05-08 02:34 37.66049 -77.42540 20904 ft 399 kts
2026-05-08 02:35 37.68738 -77.41706 20501 ft 396 kts
2026-05-08 02:35 37.71407 -77.40874 20122 ft 394 kts
2026-05-08 02:35 37.74057 -77.40047 19739 ft 391 kts
2026-05-08 02:35 37.76691 -77.39227 19355 ft 389 kts
2026-05-08 02:36 37.79310 -77.38417 18973 ft 386 kts
2026-05-08 02:36 37.81909 -77.37618 18594 ft 384 kts
2026-05-08 02:36 37.84497 -77.36821 18271 ft 382 kts
2026-05-08 02:36 37.87072 -77.36026 17868 ft 380 kts
2026-05-08 02:37 37.89632 -77.35230 17500 ft 378 kts
2026-05-08 02:37 37.92177 -77.34439 17131 ft 376 kts
2026-05-08 02:37 37.94712 -77.33658 16756 ft 374 kts
2026-05-08 02:37 37.97268 -77.32876 16404 ft 371 kts
2026-05-08 02:38 37.99804 -77.32105 16009 ft 369 kts
2026-05-08 02:38 38.02298 -77.31341 15645 ft 368 kts
2026-05-08 02:38 38.04777 -77.30575 15282 ft 366 kts
2026-05-08 02:38 38.07242 -77.29808 14929 ft 364 kts
2026-05-08 02:39 38.09697 -77.29041 14687 ft 363 kts
2026-05-08 02:39 38.12171 -77.28264 14452 ft 359 kts
2026-05-08 02:39 38.14586 -77.27503 14057 ft 357 kts
2026-05-08 02:39 38.16992 -77.26744 13601 ft 356 kts
2026-05-08 02:40 38.19392 -77.25987 13139 ft 354 kts
2026-05-08 02:40 38.21767 -77.25200 12805 ft 350 kts
2026-05-08 02:40 38.24114 -77.24339 12610 ft 342 kts 10°
2026-05-08 02:40 38.26357 -77.23472 12477 ft 331 kts 10°
2026-05-08 02:41 38.27826 -77.22895 12374 ft 322 kts 10°
2026-05-08 02:41 38.29927 -77.22069 11966 ft 313 kts
2026-05-08 02:41 38.32002 -77.21263 11632 ft 311 kts
2026-05-08 02:41 38.34064 -77.20475 11379 ft 308 kts
2026-05-08 02:42 38.36114 -77.19699 11134 ft 306 kts
2026-05-08 02:42 38.38142 -77.18929 10959 ft 303 kts
2026-05-08 02:42 38.40163 -77.18156 10882 ft 303 kts
2026-05-08 02:42 38.42154 -77.17385 10790 ft 294 kts
2026-05-08 02:43 38.44081 -77.16631 10662 ft 285 kts
2026-05-08 02:43 38.45952 -77.15899 10553 ft 279 kts
2026-05-08 02:43 38.47813 -77.15180 10492 ft 279 kts
2026-05-08 02:43 38.49693 -77.14463 10427 ft 287 kts
2026-05-08 02:44 38.51590 -77.13736 10318 ft 280 kts
2026-05-08 02:44 38.53428 -77.13021 10227 ft 276 kts
2026-05-08 02:44 38.55264 -77.12311 10151 ft 275 kts
2026-05-08 02:44 38.57096 -77.11604 10067 ft 275 kts
2026-05-08 02:45 38.58938 -77.10894 9851 ft 275 kts
2026-05-08 02:45 38.60752 -77.10195 9536 ft 272 kts
2026-05-08 02:45 38.62550 -77.09501 9257 ft 269 kts
2026-05-08 02:45 38.64324 -77.08816 8986 ft 266 kts 10°
2026-05-08 02:46 38.66092 -77.08136 8723 ft 264 kts 10°
2026-05-08 02:46 38.67862 -77.07454 8421 ft 261 kts 10°
2026-05-08 02:46 38.69617 -77.07011 8161 ft 254 kts 359°
2026-05-08 02:46 38.71374 -77.06852 7902 ft 252 kts 359°
2026-05-08 02:47 38.73118 -77.06685 7644 ft 251 kts 359°
2026-05-08 02:47 38.74852 -77.06538 7391 ft 248 kts 355°
2026-05-08 02:47 38.76536 -77.06803 7159 ft 242 kts 341°
2026-05-08 02:47 38.78086 -77.07577 6916 ft 237 kts 328°
2026-05-08 02:48 38.79476 -77.08701 6676 ft 236 kts 325°
2026-05-08 02:48 38.80856 -77.09837 6436 ft 235 kts 326°
2026-05-08 02:48 38.82222 -77.10956 6182 ft 231 kts 326°
2026-05-08 02:48 38.83506 -77.12137 5939 ft 229 kts 317°
2026-05-08 02:49 38.84664 -77.13571 5523 ft 230 kts 315°
2026-05-08 02:49 38.85790 -77.14972 5287 ft 217 kts 315°
2026-05-08 02:49 38.86819 -77.16252 5068 ft 203 kts 315°
2026-05-08 02:49 38.87499 -77.17097 4806 ft 200 kts 315°
2026-05-08 02:50 38.87836 -77.17516 4662 ft 199 kts 315°
2026-05-08 02:50 38.88494 -77.18334 4349 ft 199 kts 315°
2026-05-08 02:50 38.90819 -77.21232 3454 ft 199 kts 314°
2026-05-08 02:50 38.91778 -77.22428 3294 ft 185 kts 314°
2026-05-08 02:51 38.92672 -77.23541 3289 ft 172 kts 315°
2026-05-08 02:51 38.93553 -77.24548 3179 ft 168 kts 326°
2026-05-08 02:51 38.94693 -77.24940 3130 ft 174 kts 356°
2026-05-08 02:51 38.95868 -77.24430 3067 ft 187 kts 28°
2026-05-08 02:52 38.96635 -77.23037 2993 ft 203 kts 67°
2026-05-08 02:52 38.96697 -77.21211 2964 ft 206 kts 90°
2026-05-08 02:52 38.96634 -77.19380 2881 ft 205 kts 90°
2026-05-08 02:52 38.96575 -77.17556 2806 ft 204 kts 91°
2026-05-08 02:53 38.96317 -77.15749 2729 ft 204 kts 112°
2026-05-08 02:53 38.95538 -77.14240 2543 ft 204 kts 137°
2026-05-08 02:53 38.94469 -77.13062 2281 ft 200 kts 142°
2026-05-08 02:53 38.93440 -77.11938 2033 ft 188 kts 145°
2026-05-08 02:54 38.92433 -77.10942 1788 ft 179 kts 147°
2026-05-08 02:54 38.91499 -77.09951 1599 ft 165 kts 142°
2026-05-08 02:54 38.90763 -77.08883 1362 ft 157 kts 126°
2026-05-08 02:54 38.90354 -77.07593 1028 ft 153 kts 105°
2026-05-08 02:55 38.89998 -77.06380 859 ft 140 kts 126°
2026-05-08 02:55 38.88556 -77.04911 584 ft 130 kts 149°
2026-05-08 02:55 38.87810 -77.04278 404 ft 128 kts 155°
2026-05-08 02:56 38.86974 -77.03969 252 ft 125 kts 172°
2026-05-08 02:56 38.86125 -77.03872 86 ft 124 kts 179°
2026-05-08 02:56 38.85264 -77.03790 24 ft 94 kts 175°
2026-05-08 02:56 38.84839 -77.03748 24 ft 36 kts 175°
2026-05-08 02:57 38.84687 -77.03810 25 ft 18 kts 238°
2026-05-08 02:57 38.84734 -77.03900 24 ft 11 kts 308°
2026-05-08 02:57 38.84784 -77.03942 24 ft 8 kts 353°
2026-05-08 02:57 38.84869 -77.03950 24 ft 14 kts 357°
2026-05-08 02:58 38.84966 -77.03956 24 ft 14 kts 355°
2026-05-08 02:58 38.85066 -77.03968 24 ft 15 kts 355°
2026-05-08 02:58 38.85170 -77.03979 24 ft 15 kts 356°
2026-05-08 02:58 38.85280 -77.03989 24 ft 16 kts 355°
2026-05-08 02:59 38.85386 -77.03998 27 ft 16 kts 356°
2026-05-08 02:59 38.85497 -77.04011 24 ft 13 kts 348°
2026-05-08 02:59 38.85537 -77.04083 24 ft 11 kts 262°
2026-05-08 02:59 38.85535 -77.04142 24 ft 5 kts 307°
2026-05-08 03:00 38.85566 -77.04164 24 ft 3 kts 334°
2026-05-08 03:00 38.85576 -77.04170 24 ft 0 kts 334°